Flag for Switzerland Weather past 2 weeks in Lugano, Switzerland

Now
54 °F

Clear.


Feels Like: 47 °F
Forecast: 39 / 70 °F
Wind: 29 mph from North

Location: Lugano Airport

Current Time: Oct 23, 2014 at 3:42:35 AM

Latest Report: Oct 23, 2014 at 3:20 AM


Visibility: 10 mi

Pressure: 29.92 "Hg

Humidity: 38%

Dew point: 28 °F

Location of LuganoLocation

Historic Weather in Lugano — Graph

°F

Lugano temperature yesterday

Maximum temperature yesterday: 63 °F (at 12:50 AM)
Minimum temperature yesterday: 48 °F (at 8:50 AM)
Average temperature yesterday: 54 °F

Past Weeks' High & Low Weather Summary

 TemperatureHumidityPressure
High75 °F (Oct 17, 3:20 PM)100% (Oct 8, 7:20 AM)30.33 "Hg (Oct 8, 7:20 AM)
Low48 °F (Oct 22, 8:50 AM)25% (Oct 22, 2:20 AM)29.68 "Hg (Oct 21, 9:50 PM)
Average61 °F87%30.02 "Hg
* Reported Oct 8 2:20 AM — Oct 23 2:20 AM, Lugano, Weather by CustomWeather, © 2014

Note: Actual official high and low records may vary slightly from our data, if they occured in-between our weather recording intervals... More about our weather records

Advertising

Lugano weather history for previous 24 hours

 ConditionsComfort  
Time TempWeatherWind HumidityBarometerVisibility
2:20 AM
Oct 23
52 °FClear.26 mph44%29.95 "Hg10 mi
1:50 AM52 °FClear.25 mph44%29.95 "Hg10 mi
1:20 AM50 °FClear.25 mph47%29.98 "Hg10 mi
12:50 AM50 °FClear.23 mph47%29.98 "Hg10 mi
12:20 AM50 °FClear.18 mph47%30.01 "Hg10 mi
11:50 PM
Oct 22
50 °FCool.21 mph47%30.01 "HgN/A
11:20 PM48 °FPassing clouds.17 mph50%30.01 "HgN/A
10:50 PM48 °FClear.17 mph50%30.01 "Hg10 mi
10:20 PM48 °FCool.15 mph50%30.01 "HgN/A
9:50 PM48 °FPassing clouds.13 mph46%30.04 "HgN/A
9:20 PM50 °FPassing clouds.15 mph43%30.04 "HgN/A
8:50 PM50 °FPassing clouds.14 mph40%30.04 "HgN/A
8:20 PM50 °FClear.17 mph40%30.01 "Hg10 mi
7:50 PM50 °FClear.14 mph37%30.01 "Hg10 mi
7:20 PM50 °FClear.14 mph37%30.01 "HgN/A
6:50 PM50 °FPassing clouds.13 mph37%30.01 "HgN/A
6:20 PM52 °FPassing clouds.10 mph32%30.01 "HgN/A
5:50 PM54 °FPassing clouds.14 mph28%30.01 "HgN/A
5:20 PM55 °FPassing clouds.13 mph26%29.98 "HgN/A
4:20 PM55 °FPassing clouds.15 mph26%30.01 "HgN/A
3:50 PM57 °FPassing clouds.17 mph25%29.98 "HgN/A
3:20 PM55 °FPassing clouds.18 mph26%29.98 "HgN/A
2:50 PM57 °FPassing clouds.18 mph25%30.01 "HgN/A
2:20 PM57 °FPassing clouds.16 mph31%29.98 "HgN/A
1:50 PM57 °FPassing clouds.16 mph27%29.98 "HgN/A
1:20 PM57 °FPassing clouds.21 mph29%29.98 "HgN/A
12:50 PM57 °FPassing clouds.16 mph29%30.01 "HgN/A
12:20 PM55 °FPassing clouds.15 mph36%30.01 "HgN/A
11:50 AM54 °FPassing clouds.15 mph38%30.01 "HgN/A
11:20 AM54 °FPassing clouds.13 mph35%30.01 "HgN/A
10:50 AM54 °FPassing clouds.16 mph35%30.01 "HgN/A
10:20 AM52 °FPassing clouds.21 mph41%29.98 "HgN/A
9:50 AM52 °FPassing clouds.6 mph50%29.95 "HgN/A
9:20 AM50 °FPassing clouds.7 mph58%29.95 "HgN/A
8:50 AM48 °FPassing clouds.9 mph62%29.95 "HgN/A
8:20 AM52 °FPassing clouds.18 mph44%29.92 "HgN/A
7:50 AM52 °FPassing clouds.14 mph41%29.89 "HgN/A
7:20 AM50 °FPassing clouds.8 mph50%29.86 "HgN/A
6:50 AM50 °FPassing clouds.8 mph50%29.86 "HgN/A
6:20 AM50 °FClear.9 mph54%29.86 "Hg10 mi
5:50 AM50 °FPassing clouds.10 mph50%29.86 "HgN/A
5:20 AM52 °FPassing clouds.8 mph47%29.86 "HgN/A
4:50 AM52 °FCool.10 mph47%29.83 "HgN/A
4:20 AM55 °FPassing clouds.15 mph36%29.83 "HgN/A
3:50 AM57 °FPassing clouds.21 mph31%29.80 "HgN/A
3:20 AM59 °FClear.24 mph27%29.80 "Hg10 mi
Weather by CustomWeather, © 2014

See weather overviewHow to use our weather pages